Other Public Products
Issued by NWS Grand Forks, ND

Home | Current Version | Previous Version | Text Only | Print | Product List | Glossary Off
Versions: 1 2 3 4 5 6 7 8 9 10 11 12 13 14 15 16 17 18 19 20 21 22 23 24 25 26 27 28 29 30 31 32 33 34 35 36 37 38 39 40 41 42 43 44 45 46 47 48 49 50

000
FPUS83 KFGF 180910
OPUFGF
PRAIRIE TO PINES WEATHER ROUNDUP
NATIONAL WEATHER SERVICE EASTERN NORTH DAKOTA/GRAND FORKS ND
300 AM CST THU DEC 18 2014

 **SATELLITE DATA USED TO AUGMENT SKY COVER AT AUTOMATED STATIONS**
 *****  WEATHER ACROSS EASTERN NORTH DAKOTA  *****

CITY           SKY/WX    TMP DP  RH WIND       PRES   REMARKS
GRAND FORKS    PTCLDY     2  -1  88 SW5       30.30R WCI  -8
GRAND FORKS AF PTCLDY     2   1  93 SW2       30.29R
GRAND CITY NWS NOT AVBL
BUXTON         NOT AVBL
DEVILS LAKE    PTCLDY     9   0  66 S7        30.19R WCI  -3
FARGO          PTCLDY    10   6  84 S5        30.29S WCI   2
WAHPETON ARPT  PTSUNNY    5   1  85 CALM      30.30R
$$

 *****  WEATHER ACROSS CENTRAL AND WESTERN NORTH DAKOTA  *****

CITY           SKY/WX    TMP DP  RH WIND       PRES   REMARKS
JAMESTOWN      CLOUDY    10   7  87 SE5       30.20F WCI   2
BISMARCK       CLOUDY    17  13  84 SE9       30.15S WCI   6
MINOT          CLOUDY    12   8  84 SE7       30.10F WCI   1
MINOT AFB      MOCLDY    11  10  98 SE5       30.11S WCI   2
GARRISON         N/A     18  15  88 S8        30.09F WCI   8
WILLISTON      CLOUDY    20  16  84 SE7       30.03S WCI  11
DICKINSON      CLOUDY    20  16  84 S9        29.98F WCI   9
HETTINGER      CLOUDY    19  16  88 SE10      30.02S FOG     WCI   7
$$

 *****  OTHER OBSERVATIONS NORTHEAST NORTH DAKOTA  *****

CITY           SKY/WX    TMP DP  RH WIND       PRES   REMARKS
WALHALLA         N/A      0  -2  92 SE5       30.27F WCI -10
LANGDON        FAIR       3   0  85 S8        30.20S WCI -10
CAVALIER       FAIR       5   3  92 S3        30.28S
GRAFTON        NOT AVBL
CANDO          FAIR       0  -2  92 SE9       30.20S WCI -16
FORT TOTTEN    NOT AVBL
ROLLA          FAIR       5   3  92 S9        30.15F WCI  -9
RUGBY          FAIR       7   5  92 SE8       30.16F WCI  -6
 ***** THE ABOVE OBSERVATIONS ARE NON NWS ARE NOT QUALITY
        CONTROLLED AND MAY MIS-REPORT RAIN FOR SNOW...
$$

 *****  OTHER OBSERVATIONS SOUTHEAST NORTH DAKOTA *****

CITY           SKY/WX    TMP DP  RH WIND       PRES   REMARKS
COOPERSTOWN    NOT AVBL
VALLEY CITY    FAIR       7   7 100 CALM      30.23F
OAKES            N/A      9   9 100 SE5       30.24S WCI   0
GWINNER        SUNNY     12  10  92 MISG      30.26S
SHEYENNE NWR     N/A      3  -2  80 CALM      29.95S
BUFFALO        NOT AVBL
WYNDMERE       NOT AVBL
 ***** THE ABOVE OBSERVATIONS ARE NON NWS ARE NOT QUALITY
       CONTROLLED AND MAY MIS-REPORT RAIN FOR SNOW...
$$

  *****  WEATHER ACROSS NORTHERN MINNESOTA  *****

CITY           SKY/WX    TMP DP  RH WIND       PRES   REMARKS
FLAG ISLAND    MOCLDY     9   3  78 SE5       30.30S WCI   0
WARROAD        PTCLDY     7   1  78 E3        30.30S
ROSEAU         PTCLDY     5   0  78 CALM      30.29S
HALLOCK        PTCLDY     7   3  85 CALM      30.29R
THF RVR FALLS  PTCLDY     9   9 100 E7        30.27F WCI  -3
HALSTAD          N/A      6   1  83 SE5         N/A  WCI  -3
FOSSTON        MOCLDY     3   1  92 CALM      30.28S
BAUDETTE       MOCLDY     5   0  79 E5        30.29S WCI  -4
WASKISH        PTCLDY     3   1  92 CALM      30.29S
CROOKSTON      PTCLDY     7   3  85 SE3       30.31R
$$
  *****  WEATHER ACROSS CENTRAL AND WEST MINNESOTA  *****

CITY           SKY/WX    TMP DP  RH WIND       PRES   REMARKS
BEMIDJI        PTCLDY     2  -2  83 CALM      30.28R
PARK RAPIDS    PTCLDY     2  -2  83 W3        30.27R
WADENA         PTCLDY     1   0  92 CALM      30.28S
DETROIT LAKES  PTCLDY     7   5  92 S3        30.28R
MOORHEAD       PTCLDY    10   9  92 SE5       30.30S WCI   2
FERGUS FALLS   PTCLDY    10   7  85 E3        30.32S
ELBOW LAKE     FAIR       9   7  90 E5        30.28S WCI   1
MORRIS MN      PTCLDY     7   3  85 SE5       30.28S WCI  -2
STAPLES        PTCLDY     3   1  92 CALM      30.30R
WHEATON        MOCLDY     1   0  92 CALM      30.31S
$$
  *****  WEATHER ELSEWHERE ACROSS MINNESOTA  *****

CITY           SKY/WX    TMP DP  RH WIND       PRES   REMARKS
DULUTH         FLURRIES  18  13  80 N5        30.28S WCI  11
INTRNTL FALLS  PTCLDY     0  -4  83 SE3       30.32S
ELY            MOCLDY    -4  -8  84 CALM      30.33R
CLOQUET        FLURRIES  18  14  86 NW3       30.30S
BRAINERD       PTCLDY     1  -2  87 CALM      30.31R
HIBBING        CLOUDY    12   6  77 E3        30.30S
ALEXANDRIA     PTCLDY     9   6  88 E5        30.27F WCI   1
SAINT CLOUD    MOCLDY    10   4  76 CALM      30.32S
MINNEAPOLIS    PTCLDY    12   8  84 CALM      30.33S
$$

  *****  WEATHER ACROSS SOUTH DAKOTA  *****

CITY           SKY/WX    TMP DP  RH WIND       PRES   REMARKS
SIOUX FALLS    CLOUDY    16  12  84 E5        30.23F WCI   9
BROOKINGS      NOT AVBL
WATERTOWN      PTCLDY    10   6  84 SE3       30.21F
HURON          CLOUDY    16  12  84 SE5       30.21F WCI   9
SISSETON         N/A      2   0  91 S5        30.27S WCI  -8
ABERDEEN       CLOUDY    17  13  84 SE7       30.23F WCI   8
MITCHELL       CLOUDY    19  15  84 SE7       30.22F WCI  10
PIERRE         CLOUDY    19  18  95 SE10      30.12S FOG     WCI   7
MOBRIDGE       CLOUDY    18  15  88 SE8       30.11S WCI   8
RAPID CITY     CLOUDY    23  21  92 S9        29.99S WCI  13
$$

  *****  SOME WEATHER IN NEARBY STATES *****

CITY           SKY/WX    TMP DP  RH WIND       PRES   REMARKS
GLASGOW MT     LGT SNOW  23  19  85 SE10      29.95S FOG     WCI  12
GREAT FALLS MT PTCLDY    30  24  78 S12       29.88S WCI  20
CHEYENNE WY    CLEAR     24  16  71 W9        29.96R WCI  14
SCOTTSBLUFF NE FOG       14  12  92 N3        30.02R VSB 1/4
OMAHA NE       CLOUDY    28  21  75 E7        30.25F WCI  21
DES MOINES IA  CLOUDY    23  17  78 E7        30.28F WCI  15
DAVENPORT IA   PTCLDY    16  11  80 CALM      30.31R
CHICAGO IL     PTCLDY    21  15  78 N6        30.27F WCI  13
EAU CLAIRE WI  CLOUDY    21  16  81 CALM      30.30R
LA CROSSE WI   CLOUDY    20  13  74 NW3       30.32S
$$

  *****  SOME NATIONAL WEATHER *****

CITY           SKY/WX    TMP DP  RH WIND       PRES   REMARKS
LA GUARDIA NY  CLOUDY    40  25  55 NW22G33   29.90F
RALEIGH NC     PTCLDY    36  27  69 CALM      30.11S
ATLANTA GA     CLOUDY    39  32  76 NW8       30.12F
NEW ORLEANS LA CLOUDY    50  43  77 CALM      30.17S
OKLAHOMA CITY  DRZL/FOG  39  36  89 SE8       30.09F VSB 1/2
ALBUQUERQUE NM PTCLDY    32  30  92 E6        30.12R
SALT LAKE CITY PTCLDY    32  29  88 E5        30.06S
LOS ANGELES CA MOCLDY    54  45  71 NE3       30.11S
BOISE ID       PTCLDY    38  32  79 SE10      30.02F
SEATTLE WA     LGT RAIN  45  43  93 S5        29.93S VSB 1
$$

*** WEATHER ACROSS MANITOBA...SASKATCHEWAN AND ONTARIO ***
                ***ONTARIO***

CITY           SKY/WX    TMP DP  RH WIND       PRES   REMARKS
GERALDTON      CLEAR     -9 -13  84 CALM      30.30F
THUNDER BAY    CLEAR     -2  -6  84 SW6       30.38R WCI -14
SIOUX LOOKOUT  NOT AVBL
TORONTO        CLOUDY    30  27  86 W12       30.03R WCI  21
BIG TROUT LK   CLEAR      0  -2  92 SW7       30.25S WCI -13
PICKLE LAKE    NOT AVBL
DRYDEN         CLEAR      0  -2  92 VRB2      30.31S
KENORA         NOT AVBL
$$
                *** MANITOBA***

CITY           SKY/WX    TMP DP  RH WIND       PRES   REMARKS
BRANDON        CLEAR     -6  -9  84 E5        30.18F WCI -17
DAUPHIN        CLEAR      1   0  92 S5        30.16F WCI  -8
ISLAND LAKE    CLEAR     -4 -11  71 SE5       30.23F WCI -15
PILOT MOUND      N/A      0  -4  85 SE7         N/A  WCI -13
THE PAS        NOT AVBL
THOMPSON       NOT AVBL
WINNIPEG       NOT AVBL
LYNN LAKE      FLURRIES  14  12  92 SW7       29.98S WCI   4
CHURCHILL      CLEAR      7   3  85 W12       30.02R WCI  -9
$$
                ***SASKATCHEWAN***

CITY           SKY/WX    TMP DP  RH WIND       PRES   REMARKS
ESTEVAN        FLURRIES  18  14  86 S8        30.05S WCI   7
KINDERSLEY     FOG       16  14  93 SW5       29.86S VSB 3/8 WCI   9
LLOYDMINSTER   CLOUDY    19  18  93 S5        29.85R FOG     WCI  13
PRINCE ALBERT  FLURRIES  18  14  86 S9        29.98S WCI   6
REGINA         CLOUDY    18  16  93 S14       30.00F WCI   4
YORKTON        CLOUDY    14  12  92 S7        30.06S WCI   4



USA.gov is the U.S. government's official web portal to all federal, state and local government web resources and services.